{"data":{"norad_id":56522,"intl_designator":"2023-065V","name":"STARLINK-6327","alt_names":[],"object_type":"PAYLOAD","status":"ACTIVE","operator":null,"country":"US","launch_date":"2023-05-14","launch_site_code":"AFETR","launch_vehicle":null,"mission":null,"orbit_class":"UNKNOWN","rcs_meters":null,"size_class":null,"mass_kg":null,"dimensions":null,"purposes":["comms"],"wikipedia_slug":null,"has_3d_model":false,"image_url":null,"decayed_at":null,"tle_current":{"epoch":"2026-05-25T00:45:12.693024Z","epoch_age_seconds":65490,"freshness":"FRESH","line1":"1 56522U 23065V   26145.03139691  .00000761  00000+0  37190-4 0  9993","line2":"2 56522  42.9993 141.4694 0001334 280.1979  79.8722 15.27576960168271","mean_motion":15.2757696,"eccentricity":0.0001334,"inclination_deg":42.9993,"raan_deg":141.4694,"arg_perigee_deg":280.1979,"mean_anomaly_deg":79.8722,"bstar":3.719e-5,"rev_number":16827,"period_min":94.266936312001,"perigee_km":482.14291546885,"apogee_km":483.97348234792,"semimajor_km":6861.1951989084,"source":"CELESTRAK","updated_at":"2026-05-25T13:38:18.109857Z"}}}